| time (UTC) | temp C | wind direction | speed KPH | gust KPH | rain 1hr cm | rain 24hr cm | rain mn cm | humidity % | barometer mb |
| 20260504110658 | 9 | 0 | 0.0 | 0.0 | 461.67 | 0.00 | 0.00 | ||
| 20260504110158 | 10 | 0 | 0.0 | 0.0 | 461.67 | 0.00 | 0.00 | ||
| 20260504100158 | 9 | 0 | 0.0 | 0.0 | 461.67 | 0.00 | 0.00 | ||
| 20260504081658 | 9 | 0 | 0.0 | 0.0 | 461.67 | 0.00 | 0.00 | ||
| 20260504081158 | 9 | 0 | 0.0 | 0.0 | 461.67 | 0.00 | 0.00 | ||
| 20260504080659 | 10 | 0 | 0.0 | 0.0 | 461.67 | 0.00 | 0.00 | ||
| 20260504080158 | 10 | 0 | 0.0 | 0.0 | 461.67 | 0.00 | 0.00 | ||
| 20260504015157 | 10 | 0 | 0.0 | 0.0 | 461.67 | 0.00 | 0.00 | ||
| 20260504014658 | 10 | 0 | 0.0 | 0.0 | 461.67 | 0.00 | 0.00 | ||
| 20260504014157 | 10 | 0 | 0.0 | 0.0 | 461.67 | 0.00 | 0.00 | ||
| 20260503202158 | 17 | 210 | 4.8 | 9.7 | 461.67 | 0.00 | 0.00 | ||
| 20260503180659 | 15 | 255 | 8.0 | 14.5 | 461.67 | 0.00 | 0.00 | ||
| 20260503180159 | 15 | 352 | 4.8 | 9.7 | 461.67 | 0.00 | 0.00 | ||
| 20260503175658 | 15 | 318 | 8.0 | 14.5 | 461.67 | 0.00 | 0.00 | ||
| 20260503175159 | 14 | 283 | 4.8 | 11.3 | 461.67 | 0.00 | 0.00 | ||
| 20260503174159 | 14 | 267 | 9.7 | 17.7 | 461.67 | 0.00 | 0.00 | ||
| 20260503173659 | 14 | 328 | 1.6 | 4.8 | 461.67 | 0.00 | 0.00 | ||
| 20260503173159 | 13 | 340 | 4.8 | 12.9 | 461.67 | 0.00 | 0.00 | ||
| 20260503172701 | 15 | 304 | 4.8 | 11.3 | 461.67 | 0.00 | 0.00 | ||
| 20260503172200 | 13 | 322 | 4.8 | 11.3 | 461.67 | 0.00 | 0.00 | ||
| 20260503171659 | 13 | 0 | 0.0 | 0.0 | 461.67 | 0.00 | 0.00 | ||
| 20260503170659 | 12 | 345 | 12.9 | 17.7 | 461.67 | 0.00 | 0.00 | ||
| 20260503170159 | 12 | 346 | 1.6 | 9.7 | 461.67 | 0.00 | 0.00 | ||
| 20260503160159 | 11 | 332 | 6.4 | 12.9 | 461.67 | 0.00 | 0.00 | ||
| 20260503150659 | 10 | 0 | 0.0 | 0.0 | 461.67 | 0.00 | 0.00 | ||
| 20260503150200 | 9 | 314 | 3.2 | 9.7 | 461.67 | 0.00 | 0.00 | ||
| 20260503140159 | 7 | 0 | 0.0 | 0.0 | 461.67 | 0.00 | 0.00 | ||
| 20260503131159 | 6 | 339 | 12.9 | 17.7 | 461.67 | 0.00 | 0.00 | ||
| 20260503130659 | 6 | 325 | 1.6 | 8.0 | 461.67 | 0.00 | 0.00 | ||
| 20260503130200 | 8 | 339 | 9.7 | 12.9 | 461.67 | 0.00 | 0.00 | ||
| 20260503120159 | 6 | 246 | 6.4 | 9.7 | 461.67 | 0.00 | 0.00 |